TimeCDT,TemperatureF,Dew PointF,Humidity,Sea Level PressureIn,VisibilityMPH,Wind Direction,Wind SpeedMPH,Gust SpeedMPH,PrecipitationIn,Events,Conditions,WindDirDegrees,DateUTC
12:56 AM,79.0,61.0,54,29.73,10.0,South,11.5,-,N/A,,Clear,170,2012-10-17 05:56:00
1:56 AM,77.9,59.9,54,29.73,10.0,SSE,8.1,-,N/A,,Clear,150,2012-10-17 06:56:00
2:56 AM,77.9,63.0,60,29.73,10.0,SSE,10.4,-,N/A,,Clear,160,2012-10-17 07:56:00
3:56 AM,77.0,64.9,66,29.72,10.0,SE,5.8,-,N/A,,Clear,140,2012-10-17 08:56:00
4:56 AM,75.2,64.4,69,29.74,10.0,ESE,5.8,-,N/A,,Clear,110,2012-10-17 09:56:00
5:56 AM,72.9,65.8,79,29.71,10.0,East,3.5,-,N/A,,Clear,90,2012-10-17 10:56:00
6:56 AM,72.9,65.8,79,29.73,10.0,ESE,3.5,-,N/A,,Clear,120,2012-10-17 11:56:00
7:56 AM,72.9,66.9,82,29.74,10.0,East,4.6,-,N/A,,Clear,100,2012-10-17 12:56:00
8:56 AM,77.0,68.9,76,29.74,10.0,SSE,6.9,-,N/A,,Clear,160,2012-10-17 13:56:00
9:56 AM,81.0,68.9,67,29.76,10.0,South,12.7,-,N/A,,Clear,190,2012-10-17 14:56:00
10:56 AM,84.9,68.9,59,29.75,10.0,SSW,8.1,-,N/A,,Clear,200,2012-10-17 15:56:00
11:56 AM,88.0,68.0,51,29.75,10.0,SW,6.9,-,N/A,,Clear,220,2012-10-17 16:56:00
12:56 PM,92.8,66.9,42,29.72,10.0,SW,13.8,-,N/A,,Clear,230,2012-10-17 17:56:00
1:56 PM,95.9,64.9,36,29.68,10.0,WSW,11.5,-,N/A,,Clear,250,2012-10-17 18:56:00
2:56 PM,99.9,61.9,29,29.64,10.0,WNW,13.8,17.3,N/A,,Clear,300,2012-10-17 19:56:00
3:56 PM,99.9,61.0,28,29.62,10.0,WNW,10.4,16.1,N/A,,Partly Cloudy,300,2012-10-17 20:56:00
4:56 PM,99.9,57.9,25,29.61,10.0,WNW,9.2,-,N/A,,Clear,300,2012-10-17 21:56:00
5:56 PM,100.9,59.0,25,29.60,10.0,West,9.2,-,N/A,,Clear,270,2012-10-17 22:56:00
6:56 PM,97.9,59.0,27,29.62,10.0,WSW,8.1,-,N/A,,Clear,250,2012-10-17 23:56:00
7:56 PM,95.0,59.0,30,29.64,10.0,Calm,Calm,-,N/A,,Clear,0,2012-10-18 00:56:00
8:56 PM,90.9,57.9,33,29.67,10.0,ENE,11.5,-,N/A,,Clear,60,2012-10-18 01:56:00
9:56 PM,88.0,57.9,36,29.68,10.0,ENE,9.2,-,N/A,,Clear,70,2012-10-18 02:56:00
10:56 PM,86.0,57.9,38,29.68,10.0,ENE,5.8,-,N/A,,Clear,70,2012-10-18 03:56:00
11:56 PM,82.9,57.9,42,29.69,10.0,East,5.8,-,N/A,,Partly Cloudy,80,2012-10-18 04:56:00